H1 CPF 2 NER 2021 9 28 9 271 01 glonass105 H2 0705202 9105 32276 2021 9 28 0 0 0 2021 10 1 23 45 0 900 1 1 0 0 0 1 H9 10 0 59485 0.00000 0 -7351670.247 9250845.726 22616721.557 10 0 59485 900.00000 0 -10080237.705 9104541.729 21604110.219 10 0 59485 1800.00000 0 -12661757.055 9169596.462 20172493.239 10 0 59485 2700.00000 0 -15031072.799 9421443.307 18349698.516 10 0 59485 3600.00000 0 -17130188.550 9824592.631 16171116.463 10 0 59485 4500.00000 0 -18910465.984 10334254.439 13679015.022 10 0 59485 5400.00000 0 -20334443.608 10898364.887 10921723.400 10 0 59485 6300.00000 0 -21377200.853 11459931.376 7952699.703 10 0 59485 7200.00000 0 -22027211.616 11959597.675 4829500.094 10 0 59485 8100.00000 0 -22286652.573 12338321.286 1612668.810 10 0 59485 9000.00000 0 -22171154.042 12540050.368 -1635429.956 10 0 59485 9900.00000 0 -21709004.290 12514287.502 -4851815.972 10 0 59485 10800.00000 0 -20939840.945 12218432.026 -7974109.668 10 0 59485 11700.00000 0 -19912884.512 11619801.844 -10941738.276 10 0 59485 12600.00000 0 -18684788.088 10697248.837 -13697108.062 10 0 59485 13500.00000 0 -17317193.439 9442298.854 -16186720.086 10 0 59485 14400.00000 0 -15874095.792 7859767.040 -18362207.974 10 0 59485 15300.00000 0 -14419127.742 5967821.090 -20181277.594 10 0 59485 16200.00000 0 -13012876.005 3797487.991 -21608530.552 10 0 59485 17100.00000 0 -11710343.340 1391622.902 -22616155.556 10 0 59485 18000.00000 0 -10558662.017 -1196618.582 -23184474.143 10 0 59485 18900.00000 0 -9595154.627 -3905742.981 -23302330.028 10 0 59485 19800.00000 0 -8845823.643 -6668236.198 -22967314.170 10 0 59485 20700.00000 0 -8324333.258 -9413140.356 -22185820.652 10 0 59485 21600.00000 0 -8031526.487 -12068784.090 -20972931.656 10 0 59485 22500.00000 0 -7955498.056 -14565553.367 -19352132.935 10 0 59485 23400.00000 0 -8072220.308 -16838587.748 -17354864.530 10 0 59485 24300.00000 0 -8346695.885 -18830289.833 -15019914.682 10 0 59485 25200.00000 0 -8734588.628 -20492542.994 -12392668.047 10 0 59485 26100.00000 0 -9184263.606 -21788544.412 -9524222.510 10 0 59485 27000.00000 0 -9639149.590 -22694176.389 -6470391.694 10 0 59485 27900.00000 0 -10040323.280 -23198858.404 -3290612.772 10 0 59485 28800.00000 0 -10329204.911 -23305844.166 -46781.561 10 0 59485 29700.00000 0 -10450249.897 -23031951.561 3197961.598 10 0 59485 30600.00000 0 -10353521.196 -22406737.551 6380470.466 10 0 59485 31500.00000 0 -9997032.193 -21471153.729 9438830.692 10 0 59485 32400.00000 0 -9348759.790 -20275740.472 12313571.629 10 0 59485 33300.00000 0 -8388241.599 -18878437.020 14948827.735 10 0 59485 34200.00000 0 -7107689.061 -17342101.038 17293426.310 10 0 59485 35100.00000 0 -5512569.061 -15731843.102 19301880.239 10 0 59485 36000.00000 0 -3621629.096 -14112288.877 20935266.650 10 0 59485 36900.00000 0 -1466364.829 -12544884.424 22161974.924 10 0 59485 37800.00000 0 910047.876 -11085357.528 22958310.405 10 0 59485 38700.00000 0 3454312.046 -9781440.866 23308943.158 10 0 59485 39600.00000 0 6104994.983 -8670951.403 23207194.143 10 0 59485 40500.00000 0 8794857.765 -7780305.032 22655154.331 10 0 59485 41400.00000 0 11453432.632 -7123527.102 21663635.371 10 0 59485 42300.00000 0 14009741.871 -6701798.647 20251953.365 10 0 59485 43200.00000 0 16395046.318 -6503555.813 18447550.374 10 0 59485 44100.00000 0 18545510.366 -6505136.948 16285460.975 10 0 59485 45000.00000 0 20404673.829 -6671949.222 13807634.090 10 0 59485 45900.00000 0 21925628.986 -6960105.015 11062122.788 10 0 59485 46800.00000 0 23072813.236 -7318458.878 8102157.225 10 0 59485 47700.00000 0 23823343.484 -7690959.172 4985118.163 10 0 59485 48600.00000 0 24167837.354 -8019215.322 1771430.381 10 0 59485 49500.00000 0 24110687.446 -8245172.559 -1476603.114 10 0 59485 50400.00000 0 23669777.508 -8313781.388 -4696003.767 10 0 59485 51300.00000 0 22875652.581 -8175549.117 -7824334.090 10 0 59485 52200.00000 0 21770177.899 -7788865.524 -10800904.860 10 0 59485 53100.00000 0 20404742.589 -7122004.103 -13567949.546 10 0 59485 54000.00000 0 18838083.260 -6154713.718 -16071743.378 10 0 59485 54900.00000 0 17133818.344 -4879332.520 -18263645.457 10 0 59485 55800.00000 0 15357796.188 -3301375.855 -20101043.733 10 0 59485 56700.00000 0 13575367.602 -1439571.794 -21548184.630 10 0 59485 57600.00000 0 11848696.710 674659.151 -22576871.268 10 0 59485 58500.00000 0 10234222.389 2998260.289 -23167016.629 10 0 59485 59400.00000 0 8780376.333 5478088.856 -23307040.792 10 0 59485 60300.00000 0 7525653.031 8052897.182 -22994104.189 10 0 59485 61200.00000 0 6497112.484 10655663.845 -22234171.819 10 0 59485 62100.00000 0 5709378.300 13216179.033 -21041906.548 10 0 59485 63000.00000 0 5164173.223 15663777.300 -19440392.751 10 0 59485 63900.00000 0 4850411.602 17930104.288 -17460694.875 10 0 59485 64800.00000 0 4744844.830 19951802.177 -15141258.704 10 0 59485 65700.00000 0 4813232.373 21673001.604 -12527166.327 10 0 59485 66600.00000 0 5011988.647 23047515.347 -9669258.926 10 0 59485 67500.00000 0 5290235.578 24040641.604 -6623144.359 10 0 59485 68400.00000 0 5592173.229 24630500.765 -3448109.085 10 0 59485 69300.00000 0 5859667.099 24808849.235 -205956.246 10 0 59485 70200.00000 0 6034941.293 24581336.262 3040206.582 10 0 59485 71100.00000 0 6063262.119 23967193.106 6227205.368 10 0 59485 72000.00000 0 5895497.025 22998368.257 9293037.960 10 0 59485 72900.00000 0 5490439.306 21718146.166 12178087.668 10 0 59485 73800.00000 0 4816799.099 20179308.641 14826287.603 10 0 59485 74700.00000 0 3854775.694 18441917.474 17186212.430 10 0 59485 75600.00000 0 2597144.135 16570812.507 19212076.161 10 0 59485 76500.00000 0 1049809.884 14632931.025 20864616.748 10 0 59485 77400.00000 0 -768191.992 12694561.443 22111850.788 10 0 59485 78300.00000 0 -2825253.284 10818646.340 22929684.554 10 0 59485 79200.00000 0 -5078281.678 9062247.263 23302370.539 10 0 59485 80100.00000 0 -7474277.036 7474276.474 23222801.727 10 0 59485 81000.00000 0 -9952329.569 6093589.056 22692638.979 10 0 59485 81900.00000 0 -12445957.239 4947513.528 21722269.961 10 0 59485 82800.00000 0 -14885685.724 4050880.623 20330601.062 10 0 59485 83700.00000 0 -17201764.512 3405589.051 18544686.736 10 0 59485 84600.00000 0 -19326907.167 3000724.708 16399203.486 10 0 59485 85500.00000 0 -21198942.645 2813226.970 13935778.566 10 0 59486 0.00000 0 -22763268.255 2809072.896 11202186.236 10 0 59486 900.00000 0 -23975003.706 2944928.844 8251425.068 10 0 59486 1800.00000 0 -24800755.151 3170199.478 5140697.452 10 0 59486 2700.00000 0 -25219918.968 3429387.628 1930305.495 10 0 59486 3600.00000 0 -25225469.025 3664665.487 -1317512.105 10 0 59486 4500.00000 0 -24824195.575 3818548.635 -4539781.486 10 0 59486 5400.00000 0 -24036385.632 3836560.048 -7674010.104 10 0 59486 6300.00000 0 -22894958.028 3669771.461 -10659394.976 10 0 59486 7200.00000 0 -21444089.100 3277114.534 -13437999.291 10 0 59486 8100.00000 0 -19737386.122 2627363.744 -15955874.724 10 0 59486 9000.00000 0 -17835684.482 1700706.511 -18164107.844 10 0 59486 9900.00000 0 -15804560.289 489833.335 -20019770.305 10 0 59486 10800.00000 0 -13711661.929 -999499.440 -21486754.552 10 0 59486 11700.00000 0 -11623971.576 -2748459.573 -22536478.850 10 0 59486 12600.00000 0 -9605110.682 -4725683.910 -23148447.878 10 0 59486 13500.00000 0 -7712801.581 -6888357.578 -23310657.858 10 0 59486 14400.00000 0 -5996590.905 -9183784.227 -23019838.026 10 0 59486 15300.00000 0 -4495929.729 -11551383.476 -22281523.238 10 0 59486 16200.00000 0 -3238690.512 -13925033.672 -21109955.644 10 0 59486 17100.00000 0 -2240182.694 -16235663.358 -19527816.572 10 0 59486 18000.00000 0 -1502708.115 -18413983.931 -17565792.970 10 0 59486 18900.00000 0 -1015674.619 -20393249.655 -15261986.125 10 0 59486 19800.00000 0 -756262.750 -22111929.608 -12661173.407 10 0 59486 20700.00000 0 -690616.985 -23516179.260 -9813937.101 10 0 59486 21600.00000 0 -775510.527 -24562007.574 -6775677.122 10 0 59486 22500.00000 0 -960412.436 -25217048.020 -3605527.057 10 0 59486 23400.00000 0 -1189868.522 -25461858.626 -365195.272 10 0 59486 24300.00000 0 -1406093.957 -25290695.994 2882245.499 10 0 59486 25200.00000 0 -1551666.291 -24711730.501 6073595.477 10 0 59486 26100.00000 0 -1572203.462 -23746694.065 9146766.755 10 0 59486 27000.00000 0 -1418911.911 -22429975.649 12041998.638 10 0 59486 27900.00000 0 -1050895.802 -20807203.467 14703024.896 10 0 59486 28800.00000 0 -437128.761 -18933374.535 17078169.521 10 0 59486 29700.00000 0 441995.843 -16870610.945 19121349.491 10 0 59486 30600.00000 0 1593601.965 -14685637.839 20792965.255 10 0 59486 31500.00000 0 3011800.230 -12447089.319 22060662.064 10 0 59486 32400.00000 0 4677712.020 -10222755.188 22899948.286 10 0 59486 33300.00000 0 6560047.420 -8076883.245 23294659.697 10 0 59486 34200.00000 0 8616212.885 -6067649.107 23237261.853 10 0 59486 35100.00000 0 10793902.658 -4244897.882 22728985.742 10 0 59486 36000.00000 0 13033107.869 -2648250.350 21779794.991 10 0 59486 36900.00000 0 15268460.116 -1305650.915 20408185.935 10 0 59486 37800.00000 0 17431812.546 -232415.999 18640824.817 10 0 59486 38700.00000 0 19454951.811 569179.266 16512029.206 10 0 59486 39600.00000 0 21272328.692 1109760.431 14063103.553 10 0 59486 40500.00000 0 22823694.479 1412166.619 11341541.362 10 0 59486 41400.00000 0 24056533.964 1510246.930 8400108.885 10 0 59486 42300.00000 0 24928194.072 1447191.727 5295827.602 10 0 59486 43200.00000 0 25407619.730 1273469.607 2088874.596 10 0 59486 44100.00000 0 25476624.648 1044457.244 -1158578.389 10 0 59486 45000.00000 0 25130643.864 817862.194 -4383565.013 10 0 59486 45900.00000 0 24378936.432 651047.433 -7523540.632 10 0 59486 46800.00000 0 23244229.389 598370.698 -10517591.470 10 0 59486 47700.00000 0 21761817.428 708651.075 -13307613.310 10 0 59486 48600.00000 0 19978155.337 1022870.128 -15839436.996 10 0 59486 49500.00000 0 17949001.376 1572205.157 -18063879.075 10 0 59486 50400.00000 0 15737188.525 2376478.318 -19937697.198 10 0 59486 51300.00000 0 13410115.977 3443088.087 -21424431.878 10 0 59486 52200.00000 0 11037064.860 4766469.467 -22495118.332 10 0 59486 53100.00000 0 8686449.646 6328107.258 -23128854.459 10 0 59486 54000.00000 0 6423119.249 8097103.690 -23313213.848 10 0 59486 54900.00000 0 4305819.901 10031278.538 -23044495.413 10 0 59486 55800.00000 0 2384925.278 12078757.420 -22327804.337 10 0 59486 56700.00000 0 700528.276 14179983.487 -21176962.102 10 0 59486 57600.00000 0 -719026.156 16270069.682 -19614246.559 10 0 59486 58500.00000 0 -1858105.965 18281394.039 -17669966.283 10 0 59486 59400.00000 0 -2714214.636 20146329.956 -15381876.717 10 0 59486 60300.00000 0 -3297854.223 21799997.161 -12794448.739 10 0 59486 61200.00000 0 -3631835.004 23182917.697 -9958003.563 10 0 59486 62100.00000 0 -3750061.646 24243464.923 -6927730.621 10 0 59486 63000.00000 0 -3695847.997 24940001.851 -3762607.783 10 0 59486 63900.00000 0 -3519832.912 25242618.165 -524245.554 10 0 59486 64800.00000 0 -3277586.577 25134392.149 2724321.417 10 0 59486 65700.00000 0 -3027010.157 24612123.950 5919870.935 10 0 59486 66600.00000 0 -2825640.361 23686509.039 9000232.661 10 0 59486 67500.00000 0 -2727974.552 22381744.746 11905505.146 10 0 59486 68400.00000 0 -2782930.889 20734587.002 14579225.919 10 0 59486 69300.00000 0 -3031551.978 18792897.470 16969471.181 10 0 59486 70200.00000 0 -3505049.790 16613742.883 19029863.524 10 0 59486 71100.00000 0 -4223274.839 14261126.956 20720468.233 10 0 59486 72000.00000 0 -5193674.328 11803450.363 22008561.222 10 0 59486 72900.00000 0 -6410783.105 9310805.220 22869254.577 10 0 59486 73800.00000 0 -7856268.795 6852216.818 23285968.558 10 0 59486 74700.00000 0 -9499529.110 4492947.123 23250742.001 10 0 59486 75600.00000 0 -11298816.369 2291971.328 22764376.198 10 0 59486 76500.00000 0 -13202842.432 299731.123 21836410.356 10 0 59486 77400.00000 0 -15152797.259 -1443743.379 20484929.788 10 0 59486 78300.00000 0 -17084697.419 -2910266.738 18736210.983 10 0 59486 79200.00000 0 -18931967.164 -4084428.527 16624210.491 10 0 59486 80100.00000 0 -20628145.071 -4963983.868 14189907.396 10 0 59486 81000.00000 0 -22109604.040 -5559689.611 11480511.756 10 0 59486 81900.00000 0 -23318171.730 -5894594.450 8548553.772 10 0 59486 82800.00000 0 -24203542.475 -6002813.842 5450870.839 10 0 59486 83700.00000 0 -24725380.208 -5927842.087 2247511.525 10 0 59486 84600.00000 0 -24855024.580 -5720473.084 -999422.851 10 0 59486 85500.00000 0 -24576728.740 -5436417.664 -4226976.874 10 0 59487 0.00000 0 -23888376.772 -5133718.151 -7372556.793 10 0 59487 900.00000 0 -22801649.743 -4870069.150 -10375141.715 10 0 59487 1800.00000 0 -21341633.774 -4700158.111 -13176462.630 10 0 59487 2700.00000 0 -19545884.457 -4673137.557 -15722132.200 10 0 59487 3600.00000 0 -17462986.659 -4830336.371 -17962699.264 10 0 59487 4500.00000 0 -15150668.663 -5203307.033 -19854609.366 10 0 59487 5400.00000 0 -12673548.460 -5812291.937 -21361052.497 10 0 59487 6300.00000 0 -10100605.215 -6665174.433 -22452681.657 10 0 59487 7200.00000 0 -7502480.532 -7756960.037 -23108188.222 10 0 59487 8100.00000 0 -4948721.139 -9069811.144 -23314722.796 10 0 59487 9000.00000 0 -2505077.134 -10573635.488 -23068153.082 10 0 59487 9900.00000 0 -230967.883 -12227205.317 -22373153.215 10 0 59487 10800.00000 0 1822779.309 -13979761.982 -21243122.237 10 0 59487 11700.00000 0 3615823.813 -15773040.087 -19699932.443 10 0 59487 12600.00000 0 5119760.667 -17543627.342 -17773511.721 10 0 59487 13500.00000 0 6319063.721 -19225561.863 -15501267.189 10 0 59487 14400.00000 0 7211483.803 -20753058.168 -12927360.658 10 0 59487 15300.00000 0 7807885.658 -22063247.171 -10101849.631 10 0 59487 16200.00000 0 8131531.227 -23098814.436 -7079710.427 10 0 59487 17100.00000 0 8216840.425 -23810425.010 -3919762.603 10 0 59487 18000.00000 0 8107682.794 -24158831.769 -683516.270 10 0 59487 18900.00000 0 7855273.576 -24116577.561 2566034.443 10 0 59487 19800.00000 0 7515764.679 -23669218.688 5765647.237 10 0 59487 20700.00000 0 7147634.018 -22816017.554 8853071.524 10 0 59487 21600.00000 0 6808985.269 -21570075.143 11768267.113 10 0 59487 22500.00000 0 6554873.689 -19957897.798 14454577.143 10 0 59487 23400.00000 0 6434772.204 -18018416.913 16859831.681 10 0 59487 24300.00000 0 6490285.639 -15801503.167 18937360.352 10 0 59487 25200.00000 0 6753210.103 -13366038.026 20646894.442 10 0 59487 26100.00000 0 7244019.453 -10777623.788 21955341.410 10 0 59487 27000.00000 0 7970842.500 -8106028.040 22837417.633 10 0 59487 27900.00000 0 8928973.723 -5422469.051 23276128.114 10 0 59487 28800.00000 0 10100937.687 -2796854.814 23263084.937 10 0 59487 29700.00000 0 11457104.243 -295089.786 22798659.380 10 0 59487 30600.00000 0 12956828.621 2023439.940 21891965.654 10 0 59487 31500.00000 0 14550068.720 4108099.850 20560677.258 10 0 59487 32400.00000 0 16179412.246 5918867.598 18830679.937 10 0 59487 33300.00000 0 17782429.374 7427745.351 16735568.048 10 0 59487 34200.00000 0 19294253.078 8619666.912 14315993.969 10 0 59487 35100.00000 0 20650279.896 9492863.556 11618882.782 10 0 59487 36000.00000 0 21788878.719 10058674.887 8696526.912 10 0 59487 36900.00000 0 22653994.740 10340813.926 5605577.753 10 0 59487 37800.00000 0 23197539.854 10374118.310 2405953.235 10 0 59487 38700.00000 0 23381469.505 10202840.810 -840318.038 10 0 59487 39600.00000 0 23179458.815 9878551.537 -4070294.001 10 0 59487 40500.00000 0 22578107.382 9457740.470 -7221334.839 10 0 59487 41400.00000 0 21577621.622 8999221.491 -10232313.893 10 0 59487 42300.00000 0 20191945.268 8561447.427 -13044800.348 10 0 59487 43200.00000 0 18448331.537 8199849.431 -15604190.955 10 0 59487 44100.00000 0 16386373.690 7964313.041 -17860768.968 10 0 59487 45000.00000 0 14056533.353 7896897.609 -19770669.766 10 0 59487 45900.00000 0 11518226.760 8029895.665 -21296734.589 10 0 59487 46800.00000 0 8837547.500 8384314.670 -22409235.830 10 0 59487 47700.00000 0 6084719.599 8968845.942 -23086459.754 10 0 59487 48600.00000 0 3331385.922 9779365.299 -23315135.187 10 0 59487 49500.00000 0 647843.864 10798987.745 -23090699.538 10 0 59487 50400.00000 0 -1899657.279 11998675.304 -22417396.483 10 0 59487 51300.00000 0 -4251445.319 13338373.903 -21308202.796 10 0 59487 52200.00000 0 -6356675.683 14768632.892 -19784584.953 10 0 59487 53100.00000 0 -8175209.778 16232640.212 -17876089.421 10 0 59487 54000.00000 0 -9679043.095 17668588.487 -15619773.819 10 0 59487 54900.00000 0 -10853223.639 19012272.912 -13059489.295 10 0 59487 55800.00000 0 -11696222.495 20199811.543 -10245027.693 10 0 59487 56700.00000 0 -12219741.616 21170373.061 -7231149.955 10 0 59487 57600.00000 0 -12447967.687 21868796.290 -4076514.812 10 0 59487 58500.00000 0 -12416304.467 22247989.998 -842529.278 10 0 59487 59400.00000 0 -12169638.507 22271010.878 2407855.888 10 0 59487 60300.00000 0 -11760212.817 21912730.911 5611381.243 10 0 59487 61200.00000 0 -11245199.959 21161022.870 8705718.951 10 0 59487 62100.00000 0 -10684078.856 20017413.625 11630693.108 10 0 59487 63000.00000 0 -10135927.640 18497177.300 14329455.444 10 0 59487 63900.00000 0 -9656748.224 16628864.468 16749592.777 10 0 59487 64800.00000 0 -9296936.502 14453287.313 18844144.499 10 0 59487 65700.00000 0 -9099005.475 12022003.577 20572510.423 10 0 59487 66600.00000 0 -9095657.444 9395363.127 21901231.807 10 0 59487 67500.00000 0 -9308286.269 6640198.920 22804631.243 10 0 59487 68400.00000 0 -9745972.274 3827258.577 23265300.005 10 0 59487 69300.00000 0 -10405011.429 1028483.274 23274424.492 10 0 59487 70200.00000 0 -11268998.015 -1685753.618 22831946.531 10 0 59487 71100.00000 0 -12309456.794 -4249334.439 21946555.348 10 0 59487 72000.00000 0 -13486997.890 -6602901.288 20635512.059 10 0 59487 72900.00000 0 -14752945.876 -8696073.819 18924310.529 10 0 59487 73800.00000 0 -16051374.999 -10489290.348 16846181.223 10 0 59487 74700.00000 0 -17321465.579 -11955197.356 14441447.618 10 0 59487 75600.00000 0 -18500083.335 -13079531.325 11756747.192 10 0 59487 76500.00000 0 -19524474.030 -13861457.681 8844131.633 10 0 59487 77400.00000 0 -20334960.898 -14313354.030 5760063.118 10 0 59487 78300.00000 0 -20877532.064 -14460047.945 2564325.565 10 0 59487 79200.00000 0 -21106209.517 -14337542.111 -681128.596 10 0 59487 80100.00000 0 -20985100.122 -13991280.977 -3913374.120 10 0 59487 81000.00000 0 -20490042.211 -13474032.182 -7069728.293 10 0 59487 81900.00000 0 -19609778.032 -12843472.126 -10088962.612 10 0 59487 82800.00000 0 -18346601.981 -12159577.424 -12912487.391 10 0 59487 83700.00000 0 -16716456.356 -11481932.167 -15485486.496 10 0 59487 84600.00000 0 -14748469.254 -10867064.457 -17757980.326 10 0 59487 85500.00000 0 -12483952.612 -10365924.469 -19685796.445 10 0 59488 0.00000 0 -9974900.926 -10021610.493 -21231429.080 10 0 59488 900.00000 0 -7282050.428 -9867438.859 -22364771.586 10 0 59488 1800.00000 0 -4472581.626 -9925439.923 -23063705.627 10 0 59488 2700.00000 0 -1617555.068 -10205343.504 -23314538.273 10 0 59488 3600.00000 0 1210810.804 -10704097.843 -23112276.052 10 0 59488 4500.00000 0 3941908.653 -11405943.157 -22460731.048 10 0 59488 5400.00000 0 6509443.411 -12283037.850 -21372456.179 10 0 59488 6300.00000 0 8853953.712 -13296612.160 -19868510.119 10 0 59488 7200.00000 0 10925048.775 -14398601.667 -17978055.629 10 0 59488 8100.00000 0 12683267.674 -15533692.627 -15737798.287 10 0 59488 9000.00000 0 14101483.521 -16641693.443 -13191275.824 10 0 59488 9900.00000 0 15165793.910 -17660132.307 -10388011.501 10 0 59488 10800.00000 0 15875860.723 -18526971.152 -7382547.826 10 0 59488 11700.00000 0 16244685.555 -19183320.633 -4233379.575 10 0 59488 12600.00000 0 16297831.053 -19576040.588 -1001807.519 10 0 59488 13500.00000 0 16072122.078 -19660115.035 2249264.035 10 0 59488 14400.00000 0 15613882.807 -19400700.178 5456561.429 10 0 59488 15300.00000 0 14976785.745 -18774758.027 8557682.305 10 0 59488 16200.00000 0 14219404.999 -17772205.636 11492317.485 10 0 59488 17100.00000 0 13402578.785 -16396530.999 14203429.386 10 0 59488 18000.00000 0 12586693.886 -14664849.536 16638363.321 10 0 59488 18900.00000 0 11829007.651 -12607398.491 18749869.814 10 0 59488 19800.00000 0 11181121.102 -10266490.571 20497018.196 10 0 59488 20700.00000 0 10686709.842 -7694970.829 21845984.131 10 0 59488 21600.00000 0 10379608.060 -4954241.338 22770696.660 10 0 59488 22500.00000 0 10282325.665 -2111935.972 23253333.212 10 0 59488 23400.00000 0 10405060.057 760658.096 23284654.043 10 0 59488 24300.00000 0 10745243.108 3591325.556 22864170.766 10 0 59488 25200.00000 0 11287641.516 6309682.464 22000146.582 10 0 59488 26100.00000 0 12005005.549 8849856.594 20709428.959 10 0 59488 27000.00000 0 12859238.463 11152978.758 19017118.402 10 0 59488 27900.00000 0 13803037.288 13169383.225 16956079.861 10 0 59488 28800.00000 0 14781936.143 14860427.291 14566306.119 10 0 59488 29700.00000 0 15736666.509 16199855.938 11894145.155 10 0 59488 30600.00000 0 16605735.759 17174656.252 8991405.872 10 0 59488 31500.00000 0 17328115.963 17785367.199 5914359.081 10 0 59488 32400.00000 0 17845930.355 18045833.001 2722652.442 10 0 59488 33300.00000 0 18107024.713 17982411.337 -521840.111 10 0 59488 34200.00000 0 18067315.545 17632670.178 -3756212.503 10 0 59488 35100.00000 0 17692816.067 17043628.447 -6917741.443 10 0 59488 36000.00000 0 16961254.286 16269614.651 -9945098.820 10 0 59488 36900.00000 0 15863214.338 15369833.615 -12779538.180 10 0 59488 37800.00000 0 14402752.096 14405743.679 -15366032.432 10 0 59488 38700.00000 0 12597457.772 13438354.612 -17654340.866 10 0 59488 39600.00000 0 10477961.454 12525559.888 -19599984.806 10 0 59488 40500.00000 0 8086900.500 11719615.497 -21165113.116 10 0 59488 41400.00000 0 5477390.179 11064871.400 -22319240.804 10 0 59488 42300.00000 0 2711059.738 10595851.196 -23039846.335 10 0 59488 43200.00000 0 -144265.924 10335761.094 -23312815.915 10 0 59488 44100.00000 0 -3017143.891 10295491.350 -23132725.843 10 0 59488 45000.00000 0 -5835244.011 10473152.815 -22502956.933 10 0 59488 45900.00000 0 -8528120.180 10854168.809 -21435638.180 10 0 59488 46800.00000 0 -11029907.437 11411919.251 -19951419.974 10 0 59488 47700.00000 0 -13281832.868 12108910.664 -18079080.447 10 0 59488 48600.00000 0 -15234435.855 12898423.326 -15854971.802 10 0 59488 49500.00000 0 -16849405.052 13726566.506 -13322316.673 10 0 59488 50400.00000 0 -18100955.237 14534655.089 -10530367.778 10 0 59488 51300.00000 0 -18976686.518 15261806.920 -7533447.023 10 0 59488 52200.00000 0 -19477890.092 15847650.458 -4389882.917 10 0 59488 53100.00000 0 -19619288.261 16235027.356 -1160867.575 10 0 59488 54000.00000 0 -19428220.491 16372574.530 2090743.641 10 0 59488 54900.00000 0 -18943310.875 16217075.297 5301665.424 10 0 59488 55800.00000 0 -18212674.567 15735478.963 8409423.510 10 0 59488 56700.00000 0 -17291740.298 14906502.429 11353578.108 10 0 59488 57600.00000 0 -16240782.500 13721745.477 14076905.008 10 0 59488 58500.00000 0 -15122268.449 12186272.093 16526510.670 10 0 59488 59400.00000 0 -13998133.466 10318633.068 18654859.312 10 0 59488 60300.00000 0 -12927099.682 8150328.757 20420692.170 10 0 59488 61200.00000 0 -11962151.560 5724734.457 21789821.473 10 0 59488 62100.00000 0 -11148274.173 3095533.352 22735784.567 10 0 59488 63000.00000 0 -10520548.697 324722.288 23240346.516 10 0 59488 63900.00000 0 -10102684.150 -2519726.733 23293842.501 10 0 59488 64800.00000 0 -9906045.860 -5366452.596 22895354.522 10 0 59488 65700.00000 0 -9929220.164 -8143431.948 22052719.877 10 0 59488 66600.00000 0 -10158132.457 -10780734.596 20782371.991 10 0 59488 67500.00000 0 -10566712.660 -13213194.281 19109017.123 10 0 59488 68400.00000 0 -11118079.439 -15382885.306 17065153.322 10 0 59488 69300.00000 0 -11766193.047 -17241303.484 14690440.866 10 0 59488 70200.00000 0 -12457907.210 -18751162.179 12030936.008 10 0 59488 71100.00000 0 -13135333.878 -19887730.024 9138202.350 10 0 59488 72000.00000 0 -13738421.617 -20639655.711 6068316.555 10 0 59488 72900.00000 0 -14207639.398 -21009246.475 2880787.069 10 0 59488 73800.00000 0 -14486653.012 -21012189.467 -362593.749 10 0 59488 74700.00000 0 -14524881.478 -20676728.252 -3598942.160 10 0 59488 75600.00000 0 -14279825.641 -20042329.399 -6765497.502 10 0 59488 76500.00000 0 -13719070.503 -19157895.316 -9800835.286 10 0 59488 77400.00000 0 -12821876.319 -18079598.432 -12646055.483 10 0 59488 78300.00000 0 -11580290.542 -16868427.643 -15245923.151 10 0 59488 79200.00000 0 -9999732.577 -15587549.960 -17549939.386 10 0 59488 80100.00000 0 -8099025.300 -14299598.012 -19513321.899 10 0 59488 81000.00000 0 -5909870.242 -13063997.148 -21097876.299 10 0 59488 81900.00000 0 -3475786.495 -11934444.248 -22272741.269 10 0 59488 82800.00000 0 -850555.814 -10956644.018 -23014993.091 10 0 59488 83700.00000 0 1903763.092 -10166397.855 -23310097.690 10 0 59488 84600.00000 0 4719170.045 -9588125.649 -23152201.126 10 0 59488 85500.00000 0 7524312.791 -9233882.890 -22544252.389 99